Pagrindinis puslapis
METAR-TAF:

METAR-TAF

Oro uostai :

Utopia Creek, Aliaska, Jungtinės Amerikos Valstijos

platuma: 66-59N, ilguma: 153-42W, Aukštis: 372 m

Dabartinis oras

Ataskaita buvo paskelbta 43 minutes, ne 18:55 UTC
Ramus vėjas
Temperatūra -14°C
Drėgmė 92%
Slėgis 1018 hPa
Matomumas: 16.1 km
Giedras dangus

METAR: PAIM 281855Z 00000KT 10SM CLR M14/M15 A3005 RMK AO2A SLP214

Laikas: 11:38 (19:38 UTC)


TAF: trūkstamas

Orai ataskaitas ir orų prognozės (METAR, TAF).

turimą stotys yra geltonos ir raudonos taškus žemėlapyje.

Perkelti pele per norėdami pamatyti stoties vardą.

Tada spustelėkite, norėdami matyti oro stebėjimo ir prognozės.

Norėdami pakeisti žemėlapį: spustelėkite ant žalios mygtukų su juodo kryžiaus žemyn,; žalią mygtuką su brūkšneliu, jei norite nutolinti; arba žalių rodyklių gretimoms žemėlapius.


METAR-TAF: